VKG441 LGRP-ESOE

Flight info

Callsign VKG441
Flight time N/A
Altitude 34000
Route VANES B34 ETERU DCT LURUS DCT MES UL618 LMO UN127 KPL DCT NIKTI DCT USALI N133 LOMOS DCT EVRIK Z942 NARKA DCT KEKED DCT LENOV N133 PENOR DCT MIKNA
Aircraft A321/M-SDE3FGHIRWY/LB1

Departure

Time 2026-04-28 07:12
Airport Rhodes International Airport "Diagoras" (LGRP)

Arrival

Time N/A
Airport Örebro Airport (ESOE)
Time Latitude Longitude Altitude Speed Heading
2026-04-28 06:52 36.40383 28.09183 28 ft 0 kts 160°
2026-04-28 07:04 36.40399 28.09175 28 ft 4 kts 154°
2026-04-28 07:05 36.40421 28.09158 28 ft 4 kts 135°
2026-04-28 07:05 36.40434 28.09133 28 ft 4 kts 89°
2026-04-28 07:05 36.40434 28.09121 28 ft 0 kts 70°
2026-04-28 07:08 36.40445 28.09158 28 ft 8 kts 70°
2026-04-28 07:08 36.40471 28.09248 28 ft 14 kts 70°
2026-04-28 07:08 36.40534 28.09369 28 ft 19 kts 37°
2026-04-28 07:08 36.40605 28.09478 28 ft 16 kts 66°
2026-04-28 07:09 36.40653 28.09638 28 ft 23 kts 70°
2026-04-28 07:09 36.40718 28.09859 28 ft 31 kts 70°
2026-04-28 07:09 36.40792 28.10109 28 ft 29 kts 70°
2026-04-28 07:09 36.40855 28.10324 28 ft 19 kts 70°
2026-04-28 07:10 36.40902 28.10430 28 ft 11 kts 30°
2026-04-28 07:10 36.40969 28.10413 27 ft 10 kts 323°
2026-04-28 07:10 36.41020 28.10307 27 ft 16 kts 284°
2026-04-28 07:10 36.41011 28.10230 27 ft 2 kts 249°
2026-04-28 07:11 36.40997 28.10181 27 ft 20 kts 250°
2026-04-28 07:11 36.40861 28.09723 27 ft 89 kts 250°
2026-04-28 07:11 36.40586 28.08780 29 ft 141 kts 250°
2026-04-28 07:11 36.40204 28.07480 150 ft 170 kts 250°
2026-04-28 07:12 36.39875 28.06093 904 ft 161 kts 263°
2026-04-28 07:12 36.39773 28.04655 1407 ft 171 kts 268°
2026-04-28 07:12 36.39703 28.03171 1907 ft 177 kts 269°
2026-04-28 07:12 36.39634 28.01562 2063 ft 196 kts 268°
2026-04-28 07:13 36.39552 27.99789 2187 ft 215 kts 268°
2026-04-28 07:13 36.39453 27.97852 2318 ft 236 kts 268°
2026-04-28 07:13 36.39358 27.95726 2546 ft 256 kts 268°
2026-04-28 07:13 36.39271 27.93495 3153 ft 262 kts 268°
2026-04-28 07:14 36.39188 27.91223 3844 ft 265 kts 268°
2026-04-28 07:14 36.39104 27.88934 4568 ft 266 kts 268°
2026-04-28 07:14 36.39019 27.86627 5254 ft 269 kts 268°
2026-04-28 07:14 36.38932 27.84296 5925 ft 272 kts 267°
2026-04-28 07:15 36.38842 27.81937 6560 ft 276 kts 267°
2026-04-28 07:15 36.38748 27.79543 7158 ft 280 kts 267°
2026-04-28 07:15 36.38651 27.77120 7793 ft 282 kts 267°
2026-04-28 07:15 36.38556 27.74677 8437 ft 284 kts 267°
2026-04-28 07:16 36.38614 27.72185 9085 ft 287 kts 278°
2026-04-28 07:16 36.38927 27.69730 9740 ft 289 kts 279°
2026-04-28 07:16 36.39242 27.67249 10252 ft 296 kts 279°
2026-04-28 07:16 36.39573 27.64635 10371 ft 316 kts 279°
2026-04-28 07:17 36.39925 27.61857 10497 ft 335 kts 279°
2026-04-28 07:17 36.40299 27.58917 10627 ft 353 kts 279°
2026-04-28 07:17 36.40685 27.55865 10983 ft 362 kts 279°
2026-04-28 07:17 36.41075 27.52762 11538 ft 365 kts 279°
2026-04-28 07:18 36.41464 27.49637 12111 ft 368 kts 279°
2026-04-28 07:18 36.41854 27.46490 12708 ft 370 kts 279°
2026-04-28 07:18 36.42243 27.43328 13294 ft 372 kts 280°
2026-04-28 07:18 36.42636 27.40139 13836 ft 375 kts 280°
2026-04-28 07:19 36.43032 27.36924 14326 ft 378 kts 279°
2026-04-28 07:19 36.43433 27.33696 14837 ft 380 kts 279°
2026-04-28 07:19 36.43835 27.30443 15358 ft 381 kts 279°
2026-04-28 07:19 36.44236 27.27178 15863 ft 383 kts 279°
2026-04-28 07:20 36.44636 27.23899 16376 ft 385 kts 279°
2026-04-28 07:20 36.45039 27.20603 16853 ft 387 kts 279°
2026-04-28 07:20 36.45441 27.17292 17317 ft 389 kts 279°
2026-04-28 07:20 36.45845 27.13950 17770 ft 392 kts 279°
2026-04-28 07:21 36.46281 27.10608 18278 ft 392 kts 283°
2026-04-28 07:21 36.47098 27.07378 18703 ft 394 kts 293°
2026-04-28 07:21 36.48399 27.04383 19109 ft 395 kts 304°
2026-04-28 07:22 36.52062 26.99278 19920 ft 398 kts 313°
2026-04-28 07:22 36.53993 26.96812 20328 ft 399 kts 313°
2026-04-28 07:22 36.55935 26.94320 20692 ft 402 kts 314°
2026-04-28 07:22 36.57889 26.91805 20956 ft 407 kts 313°
2026-04-28 07:23 36.59862 26.89261 21295 ft 409 kts 314°
2026-04-28 07:23 36.61843 26.86709 21706 ft 411 kts 314°
2026-04-28 07:23 36.63835 26.84146 22082 ft 413 kts 313°
2026-04-28 07:23 36.65863 26.81537 22500 ft 413 kts 313°
2026-04-28 07:24 36.67860 26.78966 22990 ft 413 kts 313°
2026-04-28 07:24 36.69859 26.76388 23328 ft 415 kts 313°
2026-04-28 07:24 36.71868 26.73793 23697 ft 416 kts 313°
2026-04-28 07:24 36.73879 26.71194 24015 ft 418 kts 313°
2026-04-28 07:25 36.75903 26.68578 24259 ft 421 kts 313°
2026-04-28 07:25 36.77945 26.65935 24476 ft 425 kts 313°
2026-04-28 07:25 36.79999 26.63272 24755 ft 427 kts 313°
2026-04-28 07:25 36.82057 26.60604 25094 ft 427 kts 313°
2026-04-28 07:26 36.84119 26.57930 25354 ft 429 kts 313°
2026-04-28 07:26 36.86197 26.55246 25671 ft 430 kts 315°
2026-04-28 07:26 36.88485 26.52825 25884 ft 434 kts 324°
2026-04-28 07:26 36.91090 26.50890 26109 ft 438 kts 333°
2026-04-28 07:27 36.93933 26.49483 26372 ft 441 kts 339°
2026-04-28 07:27 36.96831 26.48215 26623 ft 443 kts 339°
2026-04-28 07:27 36.99740 26.46936 26874 ft 444 kts 339°
2026-04-28 07:27 37.02660 26.45647 27123 ft 446 kts 339°
2026-04-28 07:28 37.05595 26.44350 27376 ft 448 kts 339°
2026-04-28 07:28 37.08537 26.43047 27622 ft 450 kts 339°
2026-04-28 07:28 37.11495 26.41734 27874 ft 451 kts 339°
2026-04-28 07:28 37.14458 26.40417 28135 ft 452 kts 338°
2026-04-28 07:29 37.17419 26.39100 28500 ft 451 kts 339°
2026-04-28 07:29 37.20378 26.37786 28868 ft 450 kts 338°
2026-04-28 07:29 37.23326 26.36479 29232 ft 449 kts 338°
2026-04-28 07:29 37.26271 26.35172 29575 ft 448 kts 338°
2026-04-28 07:30 37.29210 26.33866 29905 ft 448 kts 338°
2026-04-28 07:30 37.32147 26.32561 30212 ft 447 kts 338°
2026-04-28 07:30 37.35077 26.31258 30483 ft 446 kts 338°
2026-04-28 07:30 37.38002 26.29953 30775 ft 446 kts 338°
2026-04-28 07:31 37.40922 26.28648 31062 ft 445 kts 338°
2026-04-28 07:31 37.42891 26.27769 31267 ft 444 kts 338°
2026-04-28 07:31 37.45797 26.26472 31584 ft 443 kts 338°
2026-04-28 07:31 37.49636 26.24757 32004 ft 441 kts 338°
2026-04-28 07:32 37.51581 26.23887 32217 ft 440 kts 338°
2026-04-28 07:32 37.54461 26.22597 32515 ft 438 kts 338°
2026-04-28 07:32 37.57330 26.21309 32801 ft 438 kts 337°
2026-04-28 07:32 37.60199 26.20020 33059 ft 437 kts 338°
2026-04-28 07:33 37.63059 26.18737 33333 ft 436 kts 338°
2026-04-28 07:33 37.65917 26.17456 33596 ft 435 kts 338°
2026-04-28 07:33 37.68771 26.16175 33871 ft 435 kts 338°
2026-04-28 07:33 37.71617 26.14895 34048 ft 435 kts 337°
2026-04-28 07:34 37.77300 26.12331 34091 ft 432 kts 337°
2026-04-28 07:34 37.82961 26.09775 34080 ft 432 kts 337°
2026-04-28 07:35 37.88661 26.07194 34087 ft 432 kts 337°
2026-04-28 07:35 37.94320 26.04629 34091 ft 432 kts 337°
2026-04-28 07:36 37.99978 26.02054 34088 ft 432 kts 337°
2026-04-28 07:36 38.05635 25.99483 34091 ft 432 kts 337°
2026-04-28 07:37 38.11295 25.96912 34094 ft 432 kts 337°
2026-04-28 07:37 38.16954 25.94335 34108 ft 432 kts 337°
2026-04-28 07:38 38.22606 25.91752 34110 ft 431 kts 337°
2026-04-28 07:38 38.28274 25.89237 34108 ft 432 kts 339°
2026-04-28 07:39 38.34025 25.87003 34103 ft 432 kts 340°
2026-04-28 07:39 38.39792 25.84843 34116 ft 432 kts 340°
2026-04-28 07:40 38.45581 25.82604 34118 ft 431 kts 340°
2026-04-28 07:40 38.51307 25.80337 34121 ft 431 kts 340°
2026-04-28 07:41 38.57035 25.78063 34124 ft 431 kts 340°
2026-04-28 07:41 38.62762 25.75795 34135 ft 431 kts 340°
2026-04-28 07:42 38.68489 25.73537 34130 ft 431 kts 340°
2026-04-28 07:42 38.74216 25.71269 34127 ft 431 kts 340°
2026-04-28 07:43 38.79938 25.68993 34127 ft 431 kts 340°
2026-04-28 07:43 38.85671 25.66714 34140 ft 431 kts 340°
2026-04-28 07:44 38.91398 25.64436 34131 ft 431 kts 340°
2026-04-28 07:44 38.97162 25.62138 34144 ft 431 kts 341°
2026-04-28 07:45 39.02882 25.59853 34149 ft 430 kts 340°
2026-04-28 07:45 39.08596 25.57557 34161 ft 430 kts 341°
2026-04-28 07:46 39.14303 25.55259 34152 ft 430 kts 341°
2026-04-28 07:46 39.20013 25.52977 34150 ft 430 kts 341°
2026-04-28 07:47 39.25720 25.50686 34159 ft 429 kts 341°
2026-04-28 07:47 39.31420 25.48374 34164 ft 429 kts 341°
2026-04-28 07:48 39.37117 25.46066 34160 ft 429 kts 341°
2026-04-28 07:48 39.42871 25.43747 34160 ft 430 kts 341°
2026-04-28 07:49 39.48574 25.41430 34164 ft 429 kts 341°
2026-04-28 07:49 39.54276 25.39113 34179 ft 429 kts 341°
2026-04-28 07:50 39.59979 25.36800 34182 ft 429 kts 341°
2026-04-28 07:50 39.65669 25.34485 34179 ft 429 kts 341°
2026-04-28 07:51 39.71362 25.32164 34175 ft 429 kts 341°
2026-04-28 07:51 39.77054 25.29832 34160 ft 428 kts 342°
2026-04-28 07:52 39.82731 25.27509 34157 ft 428 kts 342°
2026-04-28 07:52 39.88401 25.25181 34155 ft 427 kts 342°
2026-04-28 07:53 39.93957 25.22493 34149 ft 426 kts 334°
2026-04-28 07:53 39.99313 25.19188 34147 ft 426 kts 334°
2026-04-28 07:54 40.04668 25.15870 34155 ft 426 kts 334°
2026-04-28 07:54 40.10023 25.12550 34186 ft 426 kts 334°
2026-04-28 07:55 40.15377 25.09224 34183 ft 426 kts 334°
2026-04-28 07:55 40.20728 25.05897 34188 ft 426 kts 334°
2026-04-28 07:56 40.26112 25.02539 34193 ft 426 kts 334°
2026-04-28 07:56 40.31454 24.99210 34191 ft 425 kts 335°
2026-04-28 07:57 40.36796 24.95878 34192 ft 425 kts 335°
2026-04-28 07:57 40.42130 24.92539 34196 ft 424 kts 335°
2026-04-28 07:58 40.47456 24.89196 34208 ft 424 kts 335°
2026-04-28 07:58 40.52764 24.85851 34205 ft 423 kts 335°
2026-04-28 07:59 40.58065 24.82513 34201 ft 422 kts 335°
2026-04-28 07:59 40.63362 24.79186 34201 ft 422 kts 335°
2026-04-28 08:00 40.68654 24.75845 34201 ft 421 kts 335°
2026-04-28 08:00 40.73927 24.72495 34208 ft 420 kts 335°
2026-04-28 08:01 40.79183 24.69150 34190 ft 419 kts 335°
2026-04-28 08:01 40.84436 24.65822 34183 ft 418 kts 335°
2026-04-28 08:02 40.89679 24.62489 34177 ft 418 kts 335°
2026-04-28 08:02 40.94838 24.58947 34180 ft 418 kts 331°
2026-04-28 08:03 40.99841 24.55021 34183 ft 418 kts 330°
2026-04-28 08:03 41.04008 24.51682 34183 ft 417 kts 330°
2026-04-28 08:04 41.08998 24.47762 34175 ft 417 kts 330°
2026-04-28 08:04 41.14008 24.43893 34174 ft 417 kts 331°
2026-04-28 08:05 41.19022 24.40024 34171 ft 417 kts 330°
2026-04-28 08:05 41.24029 24.36142 34143 ft 417 kts 330°
2026-04-28 08:06 41.29041 24.32238 34133 ft 418 kts 330°
2026-04-28 08:06 41.34059 24.28312 34137 ft 418 kts 330°
2026-04-28 08:07 41.39079 24.24379 34122 ft 419 kts 330°
2026-04-28 08:07 41.44100 24.20447 34128 ft 419 kts 330°
2026-04-28 08:08 41.49154 24.16474 34121 ft 419 kts 330°
2026-04-28 08:08 41.54180 24.12530 34118 ft 419 kts 331°
2026-04-28 08:09 41.59434 24.09172 34114 ft 419 kts 335°
2026-04-28 08:09 41.64719 24.05881 34119 ft 419 kts 334°
2026-04-28 08:10 41.69995 24.02589 34128 ft 418 kts 334°
2026-04-28 08:10 41.75265 23.99291 34127 ft 418 kts 334°
2026-04-28 08:11 41.80568 23.95967 34122 ft 418 kts 334°
2026-04-28 08:11 41.85839 23.92671 34126 ft 418 kts 334°
2026-04-28 08:12 41.91107 23.89359 34136 ft 418 kts 334°
2026-04-28 08:12 41.96364 23.86038 34131 ft 417 kts 334°
2026-04-28 08:13 42.01621 23.82719 34127 ft 417 kts 334°
2026-04-28 08:13 42.06874 23.79394 34125 ft 417 kts 334°
2026-04-28 08:14 42.12123 23.76059 34148 ft 417 kts 334°
2026-04-28 08:14 42.17353 23.72734 34153 ft 415 kts 334°
2026-04-28 08:15 42.22575 23.69409 34151 ft 414 kts 334°
2026-04-28 08:15 42.27782 23.66091 34154 ft 413 kts 334°
2026-04-28 08:16 42.33192 23.63510 34146 ft 414 kts 344°
2026-04-28 08:16 42.38773 23.61599 34142 ft 414 kts 344°
2026-04-28 08:17 42.44352 23.59672 34139 ft 414 kts 344°
2026-04-28 08:17 42.49974 23.57724 34137 ft 414 kts 344°
2026-04-28 08:18 42.55555 23.55790 34147 ft 414 kts 344°
2026-04-28 08:18 42.61137 23.53852 34147 ft 414 kts 344°
2026-04-28 08:19 42.66712 23.51908 34143 ft 413 kts 343°
2026-04-28 08:19 42.72277 23.49959 34166 ft 412 kts 343°
2026-04-28 08:20 42.77824 23.48023 34160 ft 411 kts 343°
2026-04-28 08:20 42.83367 23.46085 34156 ft 411 kts 343°
2026-04-28 08:21 42.88901 23.44140 34153 ft 411 kts 343°
2026-04-28 08:21 42.94436 23.42197 34158 ft 410 kts 343°
2026-04-28 08:22 42.99962 23.40255 34148 ft 410 kts 343°
2026-04-28 08:22 43.05486 23.38311 34152 ft 410 kts 343°
2026-04-28 08:23 43.11004 23.36363 34140 ft 409 kts 343°
2026-04-28 08:23 43.16516 23.34410 34154 ft 409 kts 343°
2026-04-28 08:24 43.22060 23.32612 34141 ft 411 kts 350°
2026-04-28 08:24 43.27763 23.31904 34142 ft 412 kts 352°
2026-04-28 08:25 43.33468 23.31212 34135 ft 411 kts 352°
2026-04-28 08:26 43.42052 23.30132 34157 ft 411 kts 352°
2026-04-28 08:26 43.47744 23.29418 34155 ft 411 kts 352°
2026-04-28 08:27 43.53443 23.28704 34146 ft 411 kts 352°
2026-04-28 08:27 43.59136 23.28001 34157 ft 411 kts 351°
2026-04-28 08:28 43.64834 23.27302 34157 ft 411 kts 351°
2026-04-28 08:28 43.70529 23.26594 34142 ft 411 kts 351°
2026-04-28 08:29 43.76221 23.25888 34159 ft 411 kts 351°
2026-04-28 08:29 43.81916 23.25171 34157 ft 410 kts 350°
2026-04-28 08:30 43.87470 23.23425 34155 ft 406 kts 341°
2026-04-28 08:30 43.92913 23.21335 34152 ft 406 kts 341°
2026-04-28 08:31 43.98367 23.19247 34169 ft 406 kts 341°
2026-04-28 08:31 44.03810 23.17148 34163 ft 406 kts 341°
2026-04-28 08:32 44.09248 23.15051 34143 ft 406 kts 341°
2026-04-28 08:32 44.14693 23.12936 34140 ft 406 kts 341°
2026-04-28 08:33 44.20174 23.10812 34156 ft 406 kts 341°
2026-04-28 08:33 44.24702 23.09064 34152 ft 406 kts 341°
2026-04-28 08:34 44.30146 23.06953 34151 ft 406 kts 341°
2026-04-28 08:34 44.35584 23.04837 34145 ft 406 kts 341°